TELECOM 2B

Satellite information

Favourite Embed

Satellite Type and Status

PAYLOADIN ORBIT

Key statistics

Satellite TELECOM 2B at a glance.

Uptime

12249

Days in orbit

Revolutions

≈ 1.0

Per day

Orbit

OTHER

Other

Inclination

14.5

Latest

Satellite identification and parameters

Extended collection of information and parameters for TELECOM 2B.

Object identification

Identified? True

Debris? False

Object name: TELECOM 2B

International designator: 1992-021A

Object number (NORAD): 21939

Object ID (CCSDS): 21939

Country: FRANCE (FR)

Current information (Y/N): Y

RCS size: LARGE

Orbital parameters

Period: 1447.058 minutes

Inclination: 14.4633 deg

SMA: 42379.007 km

Apoapsis: 36052.249 km

Periapsis: 35949.495 km

RAAN: 5.4572 deg

Eccentricy: 0.00121233

Argument of periapsis: 127.7079 deg

Mean anomaly: 225.4074 deg

Mean motion: 0.99512262 rev/day

Mean motion (dot): -0.00000263 rev/day2

B* drag term: 0.0 1/REarth

Two-line elements (TLE)

Creation date: Oct. 27, 2025, 10:32 a.m.

Reference frame: TEME

Reference center: EARTH

Epoch: Oct. 27, 2025, 12:50 a.m. UTC

TLE line 0: 0 TELECOM 2B

TLE line 1: 1 21939U 92021A 25300.03517600 -.00000263 00000-0 00000-0 0 9992

TLE line 2: 2 21939 14.4633 5.4572 0012123 127.7079 225.4074 0.99512262115065

Live tracking on map

Real-time ground track for satellite TELECOM 2B.

In-orbit conjunctions

There are no conjunctions computed for TELECOM 2B, at the moment. Check back to stay up to date, as we update our databases every day.

Go to all conjunctions

Associated space launch

Télécom 2B and Inmarsat-2 F4 are French and International communications satellites operating in GEO.

TELECOM 2B was lifted into orbit during the mission ‘Ariane 44L | Télécom 2B & Inmarsat-2 F4’, on board a Ariane 44L space rocket.

The launch took place on April 15, 1992, 11:25 p.m. from Ariane Launch Area 2.

For more information about the launch, click the button.

Launch to space Ariane 44L | Télécom 2B & Inmarsat-2 F4
Ariane 44L | Télécom 2B & Inmarsat-2 F4

Agency: N/A

Status: Launch Successful

Launch date: April 15, 1992, 11:25 p.m. UTC

Rocket: Ariane 44L

Launch pad: Ariane Launch Area 2

Location: Guiana Space Centre, French Guiana

...

Latest news about this satellite

There are no fresh news available about this satellite. Check back as we update our databases every day.


Newsletter sign-up

Weekly statistics, charts and insights to help you stay on top of the space industry.